Regional Weather Roundup
Issued by NWS New Orleans/Baton Rouge, LA

Home | Current Version | Previous Version | Text Only | Print | Product List | Glossary Off
Versions: 1 2 3 4 5 6 7 8 9 10 11 12 13 14 15 16 17 18 19 20 21 22 23 24 25 26 27 28 29 30 31 32 33 34 35 36 37 38 39 40 41 42 43 44 45 46 47 48 49 50

015
ASUS44 KLIX 302110
RWRLIX
NEW ORLEANS REGIONAL WEATHER ROUNDUP
NATIONAL WEATHER SERVICE NEW ORLEANS LA
300 PM CST FRI JAN 30 2015

NOTE: "FAIR" INDICATES FEW OR NO CLOUDS BELOW 12,000 FEET WITH NO
      SIGNIFICANT WEATHER AND/OR OBSTRUCTIONS TO VISIBILITY.
      SKY/WX - SKY CONDITION AND SIGNIFICANT WEATHER.
      TMP - AIR TEMPERATURE.     DP    - DEWPOINT TEMPERATURE.
      RH  - RELATIVE HUMIDITY.   PRES  - PRESSURE.
      HI  - HEAT INDEX.          WCI   - WIND CHILL INDEX.

*  THESE STATIONS ARE NOT NWS OR FAA STATIONS AND ARE NOT UNDER
   NWS QUALITY CONTROL.

LAZ038-040-048-061>063-065>067-069-302200-
SOUTHEAST LOUISIANA

CITY           SKY/WX    TMP DP  RH WIND       PRES   REMARKS
N.O. AUDUBON     N/A     59 N/A N/A MISG        N/A
N.O. INTL ARPT PTSUNNY   58  35  42 N8        30.33F
N.O. LAKEFRONT MOSUNNY   58  38  47 NW6       30.33F
N.O. DOWNTOWN* NOT AVBL
SLIDELL        MOSUNNY   60  31  33 N9        30.31F
BATON ROUGE    MOSUNNY   62  29  28 NE6       30.33S
BOOTHVILLE     CLOUDY    53  40  61 N8        30.32S
BELLE CHASSE   PTSUNNY   59  33  37 N6        30.31F
BOGALUSA*        N/A     61  30  31 NE3       30.34F
GALLIANO*      MOCLDY    60  40  48 MISG      30.32S
NEW ROADS*       N/A     59  30  33 NE9       30.34F
GONZALES*        N/A     62  32  32 N7        30.32F
HAMMOND*       MOSUNNY   61  28  29 N6        30.34S
HOUMA*         SUNNY     61  36  39 N12       30.32
PORT FOURCHON* CLEAR     57  41  54 NE15      30.34F

$$

MSZ070-080>082-302200-
SOUTHERN MISSISSIPPI

CITY           SKY/WX    TMP DP  RH WIND       PRES   REMARKS
MCCOMB         PTSUNNY   59  28  30 N9        30.33F
GULFPORT       PTSUNNY   62  29  28 N10       30.30F
BILOXI         PTSUNNY   62  30  29 N8        30.30S
PASCAGOULA     PTSUNNY   63  29  27 NE12G20   30.30S

$$

COASTAL OBSERVATIONS
LAKE AND NEARSHORE STATIONS

STATION/POSITION TIME  TEMP    WIND        PRES    WAVE
                       AIR SEA DIR/SP/G            HT/PER
                 (UTC) (F)     (DEG/KT/KT) (MB)    (FT/S)
PASCAGOULA       2100   61     350/  6/ 10 1025.3
WAVELAND YACHT   2100   56     330/  4/  5 1025.6
GRAND ISLE       2100   56 62   40/  9/ 12 1026.8
SOUTHWEST PASS   2100   57 47   20/ 15/ 17 1026.4
NEW CANAL        2100   54 56  340/  2/  4 1027.3
SHELL BEACH      2100   54 58   20/  7/  8 1026.4

OFFSHORE STATIONS

STATION/POSITION TIME  TEMP    WIND        PRES    WAVE
                       AIR SEA DIR/SP/G            HT/PER
                 (UTC) (F)     (DEG/KT/KT) (MB)    (FT/S)
64 S DAUPHIN ISL 1957   55 69   20/ 16/ 19 1025.7    5/ 6

$$




USA.gov is the U.S. government's official web portal to all federal, state and local government web resources and services.